Weather History for Lakeville, MN

Change the Weather History Date:

Thursday, January 19, 2012

  Actual Average Record
Temperature  
Mean Temperature -6 °F -  
Max Temperature 1 °F 22 °F 45 °F (1981)
Min Temperature -13 °F 3 °F -35 °F (1970)
Degree Days  
Heating Degree Days 71    
Moisture  
Dew Point -16 °F    
Average Humidity 61    
Maximum Humidity 77    
Minimum Humidity 43    
Precipitation  
Precipitation 0.00 in - - ()
Sea Level Pressure  
Sea Level Pressure 30.10 in    
Wind  
Wind Speed 12 mph (WNW)    
Max Wind Speed 20 mph    
Max Gust Speed 26 mph    
Visibility 10 miles    
Events      
Averages and records for this station are not official NWS values.
T = Trace of Precipitation, MM = Missing Value Source: NWS Daily Summary

Daily Weather History Graph

Daily Weather History Graph

Search for Another Location

Airport:

Trip Planner

Search our weather history database for the weather conditions in past years. The results will help you decide how hot, cold, wet, or windy it might be!

Date:

Astronomy

Jan. 19, 2012 Rise Set
Actual Time 7:44 AM CST 5:03 PM CST
Civil Twilight 7:12 AM CST 5:35 PM CST
Nautical Twilight 6:36 AM CST 6:11 PM CST
Astronomical Twilight 6:01 AM CST 6:46 PM CST
Moon 4:23 AM CST (1/19) 1:33 PM CST (1/19)
Length of Visible Light 10h 23m
Length of Day
9h 19m
Waning Crescent, 15% of the Moon is Illuminated
Jan 19
Waning Crescent
Jan 23
New
Jan 30
First Quarter
Feb 7
Full
Feb 14
Last Quarter

Hourly Weather History & Observations

Time (CST) Temp. Windchill Dew Point Humidity Pressure Visibility Wind Dir Wind Speed Gust Speed Precip Events Conditions
12:06 AM -2.2 °F -22.2 °F -11.2 °F 66% 29.93 in 10.0 mi WNW 15.0 mph 23.0 mph N/A   Clear
12:27 AM -2.2 °F -24.7 °F -11.2 °F 66% 29.94 in 10.0 mi WNW 19.6 mph - N/A   Clear
12:47 AM -4.0 °F -24.5 °F -11.2 °F 71% 29.95 in 10.0 mi WNW 15.0 mph 26.5 mph N/A   Clear
1:06 AM -5.8 °F -26.8 °F -11.2 °F 77% 29.96 in 10.0 mi WNW 15.0 mph 20.7 mph N/A   Clear
1:27 AM -5.8 °F -28.2 °F -14.8 °F 65% 29.97 in 10.0 mi WNW 17.3 mph 24.2 mph N/A   Clear
1:47 AM -5.8 °F -27.5 °F -14.8 °F 65% 29.98 in 10.0 mi NW 16.1 mph 24.2 mph N/A   Clear
2:06 AM -7.6 °F -30.5 °F -14.8 °F 71% 29.99 in 10.0 mi NW 17.3 mph 20.7 mph N/A   Clear
2:27 AM -7.6 °F -27.5 °F -16.6 °F 65% 30.01 in 10.0 mi NW 12.7 mph 18.4 mph N/A   Clear
2:47 AM -7.6 °F -29.8 °F -16.6 °F 65% 30.02 in 10.0 mi WNW 16.1 mph 19.6 mph N/A   Clear
3:06 AM -9.4 °F -32.1 °F -16.6 °F 71% 30.03 in 10.0 mi WNW 16.1 mph - N/A   Clear
3:27 AM -9.4 °F -33.5 °F -18.4 °F 65% 30.03 in 10.0 mi WNW 18.4 mph 24.2 mph N/A   Clear
3:46 AM -9.4 °F -31.4 °F -18.4 °F 65% 30.03 in 10.0 mi NW 15.0 mph 20.7 mph N/A   Clear
4:06 AM -9.4 °F -30.6 °F -18.4 °F 65% 30.04 in 10.0 mi NW 13.8 mph - N/A   Clear
4:27 AM -11.2 °F -31.1 °F -18.4 °F 70% 30.05 in 10.0 mi NW 11.5 mph 19.6 mph N/A   Clear
4:46 AM -11.2 °F -30.1 °F -18.4 °F 70% 30.06 in 10.0 mi WNW 10.4 mph - N/A   Clear
5:06 AM -11.2 °F -32.1 °F -18.4 °F 70% 30.06 in 10.0 mi NW 12.7 mph 17.3 mph N/A   Clear
5:27 AM -11.2 °F -32.1 °F -18.4 °F 70% 30.08 in 10.0 mi WNW 12.7 mph - N/A   Clear
5:46 AM -11.2 °F -30.1 °F -18.4 °F 70% 30.09 in 10.0 mi WNW 10.4 mph - N/A   Clear
6:06 AM -11.2 °F -29.0 °F -18.4 °F 70% 30.09 in 10.0 mi WNW 9.2 mph - N/A   Clear
6:27 AM -11.2 °F -31.1 °F -18.4 °F 70% 30.10 in 10.0 mi WNW 11.5 mph 16.1 mph N/A   Clear
6:46 AM -11.2 °F -30.1 °F -18.4 °F 70% 30.11 in 10.0 mi WNW 10.4 mph - N/A   Clear
7:06 AM -13.0 °F -31.3 °F -18.4 °F 77% 30.12 in 10.0 mi WNW 9.2 mph - N/A   Clear
7:27 AM -13.0 °F -27.0 °F -18.4 °F 77% 30.13 in 10.0 mi WNW 5.8 mph - N/A   Clear
7:46 AM -13.0 °F -30.0 °F -18.4 °F 77% 30.14 in 10.0 mi WNW 8.1 mph - N/A   Clear
8:07 AM -11.2 °F -29.0 °F -18.4 °F 70% 30.15 in 10.0 mi WNW 9.2 mph - N/A   Clear
8:27 AM -11.2 °F -27.8 °F -18.4 °F 70% 30.16 in 10.0 mi WNW 8.1 mph - N/A   Clear
8:46 AM -11.2 °F -29.0 °F -18.4 °F 70% 30.16 in 10.0 mi WNW 9.2 mph - N/A   Clear
9:07 AM -9.4 °F -29.8 °F -18.4 °F 65% 30.17 in 10.0 mi WNW 12.7 mph - N/A   Clear
9:26 AM -9.4 °F -27.9 °F -18.4 °F 65% 30.17 in 10.0 mi WNW 10.4 mph - N/A   Clear
9:47 AM -9.4 °F -25.6 °F -18.4 °F 65% 30.17 in 10.0 mi WNW 8.1 mph - N/A   Clear
10:06 AM -7.6 °F -24.6 °F -18.4 °F 59% 30.17 in 10.0 mi WNW 9.2 mph - N/A   Clear
10:26 AM -7.6 °F -25.7 °F -18.4 °F 59% 30.17 in 10.0 mi WNW 10.4 mph - N/A   Clear
10:47 AM -7.6 °F -27.5 °F -16.6 °F 65% 30.17 in 10.0 mi WNW 12.7 mph - N/A   Clear
11:06 AM -5.8 °F -23.4 °F -16.6 °F 60% 30.17 in 10.0 mi West 10.4 mph - N/A   Clear
11:27 AM -5.8 °F -24.4 °F -16.6 °F 60% 30.16 in 10.0 mi WNW 11.5 mph - N/A   Clear
12:06 PM -4.0 °F -20.2 °F -16.6 °F 55% 30.14 in 10.0 mi NW 9.2 mph - N/A   Clear
12:26 PM -2.2 °F -18.9 °F -14.8 °F 55% 30.15 in 10.0 mi WNW 10.4 mph - N/A   Clear
12:47 PM -2.2 °F -18.9 °F -14.8 °F 55% 30.15 in 10.0 mi West 10.4 mph - N/A   Clear
1:06 PM -0.4 °F -15.7 °F -14.8 °F 51% 30.14 in 10.0 mi WNW 9.2 mph - N/A   Clear
1:27 PM -0.4 °F -16.7 °F -14.8 °F 51% 30.13 in 10.0 mi West 10.4 mph 17.3 mph N/A   Clear
1:46 PM -0.4 °F -15.7 °F -14.8 °F 51% 30.13 in 10.0 mi WSW 9.2 mph - N/A   Clear
2:27 PM 1.4 °F -15.3 °F -14.8 °F 47% 30.12 in 10.0 mi WNW 11.5 mph - N/A   Clear
2:46 PM 1.4 °F -14.5 °F -14.8 °F 47% 30.12 in 10.0 mi WNW 10.4 mph - N/A   Clear
3:06 PM 1.4 °F -11.3 °F -16.6 °F 43% 30.13 in 10.0 mi West 6.9 mph - N/A   Clear
3:46 PM 1.4 °F -11.3 °F -16.6 °F 43% 30.13 in 10.0 mi WNW 6.9 mph - N/A   Clear
4:27 PM 1.4 °F -8.3 °F -16.6 °F 43% 30.12 in 10.0 mi West 4.6 mph - N/A   Clear
4:46 PM -0.4 °F -10.4 °F -16.6 °F 46% 30.13 in 10.0 mi West 4.6 mph - N/A   Clear
5:07 PM -0.4 °F -8.3 °F -16.6 °F 46% 30.12 in 10.0 mi West 3.5 mph - N/A   Clear
5:27 PM -0.4 °F - -16.6 °F 46% 30.12 in 10.0 mi Calm Calm - N/A   Clear
5:46 PM -0.4 °F - -16.6 °F 46% 30.12 in 7.0 mi Calm Calm - N/A   Clear
6:07 PM -0.4 °F - -16.6 °F 46% 30.12 in 10.0 mi Calm Calm - N/A   Clear
6:26 PM -2.2 °F -10.4 °F -14.8 °F 55% 30.13 in 10.0 mi SSW 3.5 mph - N/A   Clear
6:46 PM -2.2 °F - -14.8 °F 55% 30.12 in 10.0 mi Calm Calm - N/A   Clear
7:07 PM -2.2 °F -10.4 °F -14.8 °F 55% 30.13 in 10.0 mi SW 3.5 mph - N/A   Clear
7:27 PM -2.2 °F -10.4 °F -14.8 °F 55% 30.13 in 10.0 mi SW 3.5 mph - N/A   Clear
7:46 PM -2.2 °F -10.4 °F -14.8 °F 55% 30.13 in 10.0 mi SW 3.5 mph - N/A   Clear
8:07 PM -2.2 °F -10.4 °F -13.0 °F 60% 30.13 in 10.0 mi SW 3.5 mph - N/A   Clear
8:27 PM -2.2 °F -10.4 °F -13.0 °F 60% 30.14 in 10.0 mi SW 3.5 mph - N/A   Clear
8:46 PM -2.2 °F - -11.2 °F 66% 30.14 in 10.0 mi Calm Calm - N/A   Clear
9:07 PM -2.2 °F - -11.2 °F 66% 30.14 in 10.0 mi Calm Calm - N/A   Clear
9:26 PM -4.0 °F - -11.2 °F 71% 30.13 in 7.0 mi Calm Calm - N/A   Clear
9:47 PM -4.0 °F - -13.0 °F 65% 30.13 in 10.0 mi Calm Calm - N/A   Clear
10:06 PM -4.0 °F - -13.0 °F 65% 30.12 in 10.0 mi Calm Calm - N/A   Clear
10:26 PM -4.0 °F - -13.0 °F 65% 30.12 in 10.0 mi Calm Calm - N/A   Clear
10:47 PM -4.0 °F - -11.2 °F 71% 30.13 in 10.0 mi Calm Calm - N/A   Clear
11:06 PM -4.0 °F - -13.0 °F 65% 30.13 in 10.0 mi Calm Calm - N/A   Clear
11:26 PM -4.0 °F - -13.0 °F 65% 30.12 in 10.0 mi Calm Calm - N/A   Clear
11:47 PM -4.0 °F - -11.2 °F 71% 30.12 in 10.0 mi Calm Calm - N/A   Clear